Flag for U.S.A. Weather past 2 weeks in Plano, Texas, U.S.A.

67 °F

Heavy rain. Fog.

Feels Like: 67 °F
Forecast: 41 / 68 °F
Wind: 6 mph from Southeast

Location: McKinney Municipal Airport

Current Time: Nov 27, 2015 at 4:07:44 AM

Latest Report: Nov 27, 2015 at 3:02 AM

Visibility: 2 mi

Pressure: 30.07 "Hg

Humidity: 97%

Dew point: 66 °F

Location of PlanoLocation

Historic Weather in Plano — Graph


Plano temperature yesterday

Maximum temperature yesterday: 70 °F (at 11:53 AM)
Minimum temperature yesterday: 65 °F (at 2:53 AM)
Average temperature yesterday: 67 °F

Past Weeks' High & Low Weather Summary

High72 °F (Nov 17, 3:53 AM)97% (Nov 13, 6:53 AM)30.41 "Hg (Nov 13, 6:53 AM)
Low29 °F (Nov 22, 4:53 AM)24% (Nov 13, 12:53 PM)29.44 "Hg (Nov 17, 3:53 AM)
Average55 °F70%30.11 "Hg
* Reported Nov 12 3:53 AM — Nov 27 3:02 AM, Plano, Weather by CustomWeather, © 2015

Note: Actual official high and low records may vary slightly from our data, if they occured in-between our weather recording intervals... More about our weather records


Plano weather history for previous 24 hours

Time TempWeatherWind HumidityBarometerVisibility
3:02 AM
Fri, Nov 27
67 °FHeavy rain. Fog.6 mph97%30.07 "Hg2 mi
2:53 AM67 °FHeavy rain. Fog.5 mph97%30.08 "Hg3 mi
1:53 AM67 °FHeavy rain. Fog.7 mph97%30.07 "Hg1 mi
1:00 AM68 °FHeavy rain. Fog.12 mph96%30.07 "Hg2 mi
11:53 PM
Thu, Nov 26
68 °FHeavy rain. Fog.16 mph96%30.11 "Hg4 mi
10:53 PM68 °FRain. Fog.16 mph96%30.10 "Hg4 mi
9:53 PM68 °FHeavy rain. Fog.10 mph96%30.10 "Hg3 mi
9:04 PM68 °FHeavy rain. Fog.6 mph93%30.11 "Hg2 mi
8:02 PM68 °FThundershowers. Fog.21 mph93%30.11 "Hg3 mi
6:53 PM68 °FLight rain. Fog.9 mph93%30.11 "Hg5 mi
5:53 PM68 °FLight rain. Mostly cloudy.15 mph93%30.09 "Hg10 mi
4:53 PM68 °FLight rain. Mostly cloudy.15 mph90%30.06 "Hg10 mi
3:53 PM67 °FLight rain. Fog.12 mph93%30.06 "Hg4 mi
3:03 PM67 °FLight rain. Fog.13 mph93%30.09 "Hg4 mi
2:55 PM67 °FHeavy rain. Fog.12 mph93%30.09 "Hg2 mi
1:53 PM70 °FMostly cloudy.16 mph79%30.11 "Hg10 mi
12:53 PM70 °FMostly cloudy.20 mph79%30.13 "Hg10 mi
11:53 AM70 °FMostly cloudy.20 mph79%30.15 "Hg10 mi
10:53 AM69 °FOvercast.20 mph81%30.17 "Hg10 mi
9:53 AM68 °FOvercast.14 mph82%30.18 "Hg10 mi
8:53 AM66 °FOvercast.14 mph87%30.19 "Hg10 mi
7:53 AM65 °FOvercast.13 mph91%30.16 "Hg9 mi
6:53 AM66 °FOvercast.14 mph87%30.14 "Hg10 mi
5:53 AM65 °FOvercast.14 mph91%30.13 "Hg10 mi
4:53 AM65 °FOvercast.15 mph87%30.14 "Hg10 mi
Weather by CustomWeather, © 2015

See weather overviewHow to use our weather pages